EGLLEGBB

Guest
Details From EGLL - London Heathrow
To EGBB - Birmingham
Flight Number -
Tags Generated
Created
Modified
Stats Distance 76 nm / 140 km
Max Altitude 0 ft / 0 m
Waypoints 2
Social Downloads 12
Likes 0
Share VATSIM

Download

Looking for another format? Having issues loading an existing format? Contact us
Advertisement - Login to hide

Notes

Generated

Route

EGLL EGBB

ID Type Via Altitude Latitude Longitude Leg Dist Tot Dist Heading (true) Name
O EGLL APT - 0 ft / 0 m 51.46477˚ -0.48695˚ - 0 nm - -
O EGBB APT - 0 ft / 0 m 52.45113˚ -1.75493˚ 75 nm 75 nm 322° / 321° -

Altitude Profile

Advertisement - Login to hide

EGLL

Details ICAO EGLL (LHR)
Name London Heathrow
Region United Kingdom
Timezone Europe/London (UTC+1.0)
Stats Elevation 83 ft / 25 m (AMSL)
Location 51.471218° -0.460978°
Runways 2
Magnetic Variation 0.494° W

METAR

EGLL 262320Z 04005KT 020V080 9999 TS BKN045CB 18/16 Q1018 RETS RERA TEMPO 5000 TSRA BKN045CB

Decode

TAF

TAF EGLL 261703Z 2618/2724 07012KT 9999 SCT040 PROB30 TEMPO 2618/2622 07015G25KT PROB30 TEMPO 2622/2712 08015G25KT 3000 +TSRAGS BKN014 BKN045CB PROB40 TEMPO 2712/2718 3000 +TSRAGR BKN014 BKN025CB PROB30 TEMPO 2718/2724 3000 +TSRAGS BKN014 BKN025CB

Decode

Departure Runways

ID Width Length Bearing (true) Bearing (mag) Surface Threshold Offset Overrun Length
09L 164 ft / 50 m 12,811 ft / 3,905 m 89.64° 90.13° Asphalt 1,004 ft / 306 m 0 ft / 0 m
09R 164 ft / 50 m 12,019 ft / 3,663 m 89.67° 90.16° Asphalt 1,007 ft / 307 m 0 ft / 0 m
27L 164 ft / 50 m 12,019 ft / 3,663 m 269.71° 270.20° Asphalt 0 ft / 0 m 69 ft / 21 m
27R 164 ft / 50 m 12,811 ft / 3,905 m 269.69° 270.18° Asphalt 0 ft / 0 m 69 ft / 21 m

EGBB

Details ICAO EGBB (BHX)
Name Birmingham
Region United Kingdom
Timezone Europe/London (UTC+1.0)
Stats Elevation 327 ft / 100 m (AMSL)
Location 52.455966° -1.750378°
Runways 1
Magnetic Variation 1.072° W

METAR

EGBB 262320Z 04009KT CAVOK 14/08 Q1019

Decode

TAF

TAF EGBB 261657Z 2618/2718 04012KT 9999 FEW025 TEMPO 2621/2714 6000 TSRA PROB30 TEMPO 2622/2714 04015G25KT 2000 +SHRA TSGR BKN010 BKN040CB TEMPO 2714/2718 6000 TSRA

Decode

Destination Runways

ID Width Length Bearing (true) Bearing (mag) Surface Threshold Offset Overrun Length
15 151 ft / 46 m 8,477 ft / 2,584 m 145.87° 146.94° Asphalt 925 ft / 282 m 0 ft / 0 m
33 151 ft / 46 m 8,477 ft / 2,584 m 325.89° 326.96° Asphalt 958 ft / 292 m 0 ft / 0 m

Approach Navaids

Runway Type Ident Frequency Range Bearing (true) Bearing (mag) Slope Elevation
15 Localiser IBIR 110.10 MHz 18 nm / 33 km 145.89° 146.96° - 325 ft / 99 m (AMSL)
15 Glidescope IBIR 110.10 MHz 10 nm / 19 km 145.88° 146.95° 3.00° 325 ft / 99 m (AMSL)
15 DME IBIR 110.10 MHz 18 nm / 33 km - - - 349 ft / 106 m (AMSL)
33 Localiser IBM 110.10 MHz 18 nm / 33 km 325.87° 326.94° - 325 ft / 99 m (AMSL)
33 Glidescope IBM 110.10 MHz 10 nm / 19 km 325.88° 326.95° 3.00° 325 ft / 99 m (AMSL)
33 DME IBM 110.10 MHz 18 nm / 33 km - - - 327 ft / 100 m (AMSL)

Popular Alternatives